owner,sensor,date,latitude,longitude,sea_surface_height_above_sea_level,qcFlag 
COMPS,ioos:station:USF.COMPS:TAR:1,2013-12-01T00:00:00Z,28.1560,-82.7580,-0.24,1111122 
COMPS,ioos:station:USF.COMPS:TAR:1,2013-12-01T00:06:00Z,28.1560,-82.7580,-0.24,1111122 
COMPS,ioos:station:USF.COMPS:TAR:1,2013-12-01T00:12:00Z,28.1560,-82.7580,-0.239,1111122 
COMPS,ioos:station:USF.COMPS:TAR:1,2013-12-01T00:18:00Z,28.1560,-82.7580,-0.239,1111122 
COMPS,ioos:station:USF.COMPS:TAR:1,2013-12-01T00:24:00Z,28.1560,-82.7580,-0.239,1111122 
COMPS,ioos:station:USF.COMPS:TAR:1,2013-12-01T00:30:00Z,28.1560,-82.7580,-0.238,1111122 
COMPS,ioos:station:USF.COMPS:TAR:1,2013-12-01T00:36:00Z,28.1560,-82.7580,-0.238,1111122 
COMPS,ioos:station:USF.COMPS:TAR:1,2013-12-01T00:42:00Z,28.1560,-82.7580,-0.238,1111122 
COMPS,ioos:station:USF.COMPS:TAR:1,2013-12-01T00:48:00Z,28.1560,-82.7580,-0.237,1111122 
COMPS,ioos:station:USF.COMPS:TAR:1,2013-12-01T00:54:00Z,28.1560,-82.7580,-0.237,1111122 
COMPS,ioos:station:USF.COMPS:TAR:1,2013-12-01T01:00:00Z,28.1560,-82.7580,-0.236,1111122 
COMPS,ioos:station:USF.COMPS:TAR:1,2013-12-01T01:06:00Z,28.1560,-82.7580,-0.236,1111122 
COMPS,ioos:station:USF.COMPS:TAR:1,2013-12-01T01:12:00Z,28.1560,-82.7580,-0.236,1111122 
COMPS,ioos:station:USF.COMPS:TAR:1,2013-12-01T01:18:00Z,28.1560,-82.7580,-0.235,1111122 
COMPS,ioos:station:USF.COMPS:TAR:1,2013-12-01T01:24:00Z,28.1560,-82.7580,-0.234,1111122 
COMPS,ioos:station:USF.COMPS:TAR:1,2013-12-01T01:30:00Z,28.1560,-82.7580,-0.234,1111122 
COMPS,ioos:station:USF.COMPS:TAR:1,2013-12-01T01:36:00Z,28.1560,-82.7580,-0.233,1111122 
COMPS,ioos:station:USF.COMPS:TAR:1,2013-12-01T01:42:00Z,28.1560,-82.7580,-0.233,1111122 
COMPS,ioos:station:USF.COMPS:TAR:1,2013-12-01T01:48:00Z,28.1560,-82.7580,-0.232,1111122 
COMPS,ioos:station:USF.COMPS:TAR:1,2013-12-01T01:54:00Z,28.1560,-82.7580,-0.232,1111122 
COMPS,ioos:station:USF.COMPS:TAR:1,2013-12-01T02:00:00Z,28.1560,-82.7580,-0.231,1111122 
COMPS,ioos:station:USF.COMPS:TAR:1,2013-12-01T02:06:00Z,28.1560,-82.7580,-0.23,1111122 
COMPS,ioos:station:USF.COMPS:TAR:1,2013-12-01T02:12:00Z,28.1560,-82.7580,-0.23,1111122 
COMPS,ioos:station:USF.COMPS:TAR:1,2013-12-01T02:18:00Z,28.1560,-82.7580,-0.229,1111122 
COMPS,ioos:station:USF.COMPS:TAR:1,2013-12-01T02:24:00Z,28.1560,-82.7580,-0.229,1111122 
COMPS,ioos:station:USF.COMPS:TAR:1,2013-12-01T02:30:00Z,28.1560,-82.7580,-0.228,1111122 
COMPS,ioos:station:USF.COMPS:TAR:1,2013-12-01T02:36:00Z,28.1560,-82.7580,-0.228,1111122 
COMPS,ioos:station:USF.COMPS:TAR:1,2013-12-01T02:42:00Z,28.1560,-82.7580,-0.227,1111122 
COMPS,ioos:station:USF.COMPS:TAR:1,2013-12-01T02:48:00Z,28.1560,-82.7580,-0.227,1111122 
COMPS,ioos:station:USF.COMPS:TAR:1,2013-12-01T02:54:00Z,28.1560,-82.7580,-0.226,1111122 
COMPS,ioos:station:USF.COMPS:TAR:1,2013-12-01T03:00:00Z,28.1560,-82.7580,-0.225,1111122 
COMPS,ioos:station:USF.COMPS:TAR:1,2013-12-01T03:06:00Z,28.1560,-82.7580,-0.225,1111122 
COMPS,ioos:station:USF.COMPS:TAR:1,2013-12-01T03:12:00Z,28.1560,-82.7580,-0.224,1111122 
COMPS,ioos:station:USF.COMPS:TAR:1,2013-12-01T03:18:00Z,28.1560,-82.7580,-0.223,1111122 
COMPS,ioos:station:USF.COMPS:TAR:1,2013-12-01T03:24:00Z,28.1560,-82.7580,-0.223,1111122 
COMPS,ioos:station:USF.COMPS:TAR:1,2013-12-01T03:30:00Z,28.1560,-82.7580,-0.222,1111122 
COMPS,ioos:station:USF.COMPS:TAR:1,2013-12-01T03:36:00Z,28.1560,-82.7580,-0.221,1111122 
COMPS,ioos:station:USF.COMPS:TAR:1,2013-12-01T03:42:00Z,28.1560,-82.7580,-0.221,1111122 
COMPS,ioos:station:USF.COMPS:TAR:1,2013-12-01T03:48:00Z,28.1560,-82.7580,-0.22,1111122 
COMPS,ioos:station:USF.COMPS:TAR:1,2013-12-01T03:54:00Z,28.1560,-82.7580,-0.219,1111122 
COMPS,ioos:station:USF.COMPS:TAR:1,2013-12-01T04:00:00Z,28.1560,-82.7580,-0.219,1111122 
COMPS,ioos:station:USF.COMPS:TAR:1,2013-12-01T04:06:00Z,28.1560,-82.7580,-0.218,1111122 
COMPS,ioos:station:USF.COMPS:TAR:1,2013-12-01T04:12:00Z,28.1560,-82.7580,-0.218,1111122 
COMPS,ioos:station:USF.COMPS:TAR:1,2013-12-01T04:18:00Z,28.1560,-82.7580,-0.217,1111122 
COMPS,ioos:station:USF.COMPS:TAR:1,2013-12-01T04:24:00Z,28.1560,-82.7580,-0.217,1111122 
COMPS,ioos:station:USF.COMPS:TAR:1,2013-12-01T04:30:00Z,28.1560,-82.7580,-0.216,1111122 
COMPS,ioos:station:USF.COMPS:TAR:1,2013-12-01T04:36:00Z,28.1560,-82.7580,-0.216,1111122 
COMPS,ioos:station:USF.COMPS:TAR:1,2013-12-01T04:42:00Z,28.1560,-82.7580,-0.215,1111122 
COMPS,ioos:station:USF.COMPS:TAR:1,2013-12-01T04:48:00Z,28.1560,-82.7580,-0.215,1111122 
COMPS,ioos:station:USF.COMPS:TAR:1,2013-12-01T04:54:00Z,28.1560,-82.7580,-0.214,1111122 
COMPS,ioos:station:USF.COMPS:TAR:1,2013-12-01T05:00:00Z,28.1560,-82.7580,-0.213,1111122 
COMPS,ioos:station:USF.COMPS:TAR:1,2013-12-01T05:06:00Z,28.1560,-82.7580,-0.213,1111122 
COMPS,ioos:station:USF.COMPS:TAR:1,2013-12-01T05:12:00Z,28.1560,-82.7580,-0.212,1111122 
COMPS,ioos:station:USF.COMPS:TAR:1,2013-12-01T05:18:00Z,28.1560,-82.7580,-0.211,1111122 
COMPS,ioos:station:USF.COMPS:TAR:1,2013-12-01T05:24:00Z,28.1560,-82.7580,-0.211,1111122 
COMPS,ioos:station:USF.COMPS:TAR:1,2013-12-01T05:30:00Z,28.1560,-82.7580,-0.21,1111122 
COMPS,ioos:station:USF.COMPS:TAR:1,2013-12-01T05:36:00Z,28.1560,-82.7580,-0.21,1111122 
COMPS,ioos:station:USF.COMPS:TAR:1,2013-12-01T05:42:00Z,28.1560,-82.7580,-0.21,1111122 
COMPS,ioos:station:USF.COMPS:TAR:1,2013-12-01T05:48:00Z,28.1560,-82.7580,-0.209,1111122 
COMPS,ioos:station:USF.COMPS:TAR:1,2013-12-01T05:54:00Z,28.1560,-82.7580,-0.209,1111122 
COMPS,ioos:station:USF.COMPS:TAR:1,2013-12-01T06:00:00Z,28.1560,-82.7580,-0.209,1111122 
COMPS,ioos:station:USF.COMPS:TAR:1,2013-12-01T06:06:00Z,28.1560,-82.7580,-0.208,1111122 
COMPS,ioos:station:USF.COMPS:TAR:1,2013-12-01T06:12:00Z,28.1560,-82.7580,-0.208,1111122 
COMPS,ioos:station:USF.COMPS:TAR:1,2013-12-01T06:18:00Z,28.1560,-82.7580,-0.207,1111122 
COMPS,ioos:station:USF.COMPS:TAR:1,2013-12-01T06:24:00Z,28.1560,-82.7580,-0.207,1111122 
COMPS,ioos:station:USF.COMPS:TAR:1,2013-12-01T06:30:00Z,28.1560,-82.7580,-0.207,1111122 
COMPS,ioos:station:USF.COMPS:TAR:1,2013-12-01T06:36:00Z,28.1560,-82.7580,-0.207,1111122 
COMPS,ioos:station:USF.COMPS:TAR:1,2013-12-01T06:42:00Z,28.1560,-82.7580,-0.207,1111122 
COMPS,ioos:station:USF.COMPS:TAR:1,2013-12-01T06:48:00Z,28.1560,-82.7580,-0.207,1111122 
COMPS,ioos:station:USF.COMPS:TAR:1,2013-12-01T06:54:00Z,28.1560,-82.7580,-0.207,1111122 
COMPS,ioos:station:USF.COMPS:TAR:1,2013-12-01T07:00:00Z,28.1560,-82.7580,-0.206,1111122 
COMPS,ioos:station:USF.COMPS:TAR:1,2013-12-01T07:06:00Z,28.1560,-82.7580,-0.207,1111122 
COMPS,ioos:station:USF.COMPS:TAR:1,2013-12-01T07:12:00Z,28.1560,-82.7580,-0.206,1111122 
COMPS,ioos:station:USF.COMPS:TAR:1,2013-12-01T07:18:00Z,28.1560,-82.7580,-0.206,1111122 
COMPS,ioos:station:USF.COMPS:TAR:1,2013-12-01T07:24:00Z,28.1560,-82.7580,-0.206,1111122 
COMPS,ioos:station:USF.COMPS:TAR:1,2013-12-01T07:30:00Z,28.1560,-82.7580,-0.206,1111122 
COMPS,ioos:station:USF.COMPS:TAR:1,2013-12-01T07:36:00Z,28.1560,-82.7580,-0.206,1111122 
COMPS,ioos:station:USF.COMPS:TAR:1,2013-12-01T07:42:00Z,28.1560,-82.7580,-0.206,1111122 
COMPS,ioos:station:USF.COMPS:TAR:1,2013-12-01T07:48:00Z,28.1560,-82.7580,-0.206,1111122 
COMPS,ioos:station:USF.COMPS:TAR:1,2013-12-01T07:54:00Z,28.1560,-82.7580,-0.207,1111122 
COMPS,ioos:station:USF.COMPS:TAR:1,2013-12-01T08:00:00Z,28.1560,-82.7580,-0.207,1111122 
COMPS,ioos:station:USF.COMPS:TAR:1,2013-12-01T08:06:00Z,28.1560,-82.7580,-0.207,1111122 
COMPS,ioos:station:USF.COMPS:TAR:1,2013-12-01T08:12:00Z,28.1560,-82.7580,-0.207,1111122 
COMPS,ioos:station:USF.COMPS:TAR:1,2013-12-01T08:18:00Z,28.1560,-82.7580,-0.207,1111122 
COMPS,ioos:station:USF.COMPS:TAR:1,2013-12-01T08:24:00Z,28.1560,-82.7580,-0.208,1111122 
COMPS,ioos:station:USF.COMPS:TAR:1,2013-12-01T08:30:00Z,28.1560,-82.7580,-0.208,1111122 
COMPS,ioos:station:USF.COMPS:TAR:1,2013-12-01T08:36:00Z,28.1560,-82.7580,-0.209,1111122 
COMPS,ioos:station:USF.COMPS:TAR:1,2013-12-01T08:42:00Z,28.1560,-82.7580,-0.209,1111122 
COMPS,ioos:station:USF.COMPS:TAR:1,2013-12-01T08:48:00Z,28.1560,-82.7580,-0.21,1111122 
COMPS,ioos:station:USF.COMPS:TAR:1,2013-12-01T08:54:00Z,28.1560,-82.7580,-0.21,1111122 
COMPS,ioos:station:USF.COMPS:TAR:1,2013-12-01T09:00:00Z,28.1560,-82.7580,-0.211,1111122 
COMPS,ioos:station:USF.COMPS:TAR:1,2013-12-01T09:06:00Z,28.1560,-82.7580,-0.212,1111122 
COMPS,ioos:station:USF.COMPS:TAR:1,2013-12-01T09:12:00Z,28.1560,-82.7580,-0.213,1111122 
COMPS,ioos:station:USF.COMPS:TAR:1,2013-12-01T09:18:00Z,28.1560,-82.7580,-0.214,1111122 
COMPS,ioos:station:USF.COMPS:TAR:1,2013-12-01T09:24:00Z,28.1560,-82.7580,-0.215,1111122 
COMPS,ioos:station:USF.COMPS:TAR:1,2013-12-01T09:30:00Z,28.1560,-82.7580,-0.216,1111122 
COMPS,ioos:station:USF.COMPS:TAR:1,2013-12-01T09:36:00Z,28.1560,-82.7580,-0.218,1111122 
COMPS,ioos:station:USF.COMPS:TAR:1,2013-12-01T09:42:00Z,28.1560,-82.7580,-0.219,1111122 
COMPS,ioos:station:USF.COMPS:TAR:1,2013-12-01T09:48:00Z,28.1560,-82.7580,-0.22,1111122 
COMPS,ioos:station:USF.COMPS:TAR:1,2013-12-01T09:54:00Z,28.1560,-82.7580,-0.221,1111122 
COMPS,ioos:station:USF.COMPS:TAR:1,2013-12-01T10:00:00Z,28.1560,-82.7580,-0.222,1111122 
COMPS,ioos:station:USF.COMPS:TAR:1,2013-12-01T10:06:00Z,28.1560,-82.7580,-0.224,1111122 
COMPS,ioos:station:USF.COMPS:TAR:1,2013-12-01T10:12:00Z,28.1560,-82.7580,-0.225,1111122 
COMPS,ioos:station:USF.COMPS:TAR:1,2013-12-01T10:18:00Z,28.1560,-82.7580,-0.226,1111122 
COMPS,ioos:station:USF.COMPS:TAR:1,2013-12-01T10:24:00Z,28.1560,-82.7580,-0.228,1111122 
COMPS,ioos:station:USF.COMPS:TAR:1,2013-12-01T10:30:00Z,28.1560,-82.7580,-0.229,1111122 
COMPS,ioos:station:USF.COMPS:TAR:1,2013-12-01T10:36:00Z,28.1560,-82.7580,-0.23,1111122 
COMPS,ioos:station:USF.COMPS:TAR:1,2013-12-01T10:42:00Z,28.1560,-82.7580,-0.232,1111122 
COMPS,ioos:station:USF.COMPS:TAR:1,2013-12-01T10:48:00Z,28.1560,-82.7580,-0.233,1111122 
COMPS,ioos:station:USF.COMPS:TAR:1,2013-12-01T10:54:00Z,28.1560,-82.7580,-0.235,1111122 
COMPS,ioos:station:USF.COMPS:TAR:1,2013-12-01T11:00:00Z,28.1560,-82.7580,-0.236,1111122 
COMPS,ioos:station:USF.COMPS:TAR:1,2013-12-01T11:06:00Z,28.1560,-82.7580,-0.238,1111122 
COMPS,ioos:station:USF.COMPS:TAR:1,2013-12-01T11:12:00Z,28.1560,-82.7580,-0.239,1111122 
COMPS,ioos:station:USF.COMPS:TAR:1,2013-12-01T11:18:00Z,28.1560,-82.7580,-0.241,1111122 
COMPS,ioos:station:USF.COMPS:TAR:1,2013-12-01T11:24:00Z,28.1560,-82.7580,-0.242,1111122 
COMPS,ioos:station:USF.COMPS:TAR:1,2013-12-01T11:30:00Z,28.1560,-82.7580,-0.244,1111122 
COMPS,ioos:station:USF.COMPS:TAR:1,2013-12-01T11:36:00Z,28.1560,-82.7580,-0.245,1111122 
COMPS,ioos:station:USF.COMPS:TAR:1,2013-12-01T11:42:00Z,28.1560,-82.7580,-0.247,1111122 
COMPS,ioos:station:USF.COMPS:TAR:1,2013-12-01T11:48:00Z,28.1560,-82.7580,-0.248,1111122 
COMPS,ioos:station:USF.COMPS:TAR:1,2013-12-01T11:54:00Z,28.1560,-82.7580,-0.249,1111122 
COMPS,ioos:station:USF.COMPS:TAR:1,2013-12-01T12:00:00Z,28.1560,-82.7580,-0.251,1111122 
COMPS,ioos:station:USF.COMPS:TAR:1,2013-12-01T12:06:00Z,28.1560,-82.7580,-0.252,1111122 
COMPS,ioos:station:USF.COMPS:TAR:1,2013-12-01T12:12:00Z,28.1560,-82.7580,-0.253,1111122 
COMPS,ioos:station:USF.COMPS:TAR:1,2013-12-01T12:18:00Z,28.1560,-82.7580,-0.254,1111122 
COMPS,ioos:station:USF.COMPS:TAR:1,2013-12-01T12:24:00Z,28.1560,-82.7580,-0.255,1111122 
COMPS,ioos:station:USF.COMPS:TAR:1,2013-12-01T12:30:00Z,28.1560,-82.7580,-0.256,1111122 
COMPS,ioos:station:USF.COMPS:TAR:1,2013-12-01T12:36:00Z,28.1560,-82.7580,-0.257,1111122 
COMPS,ioos:station:USF.COMPS:TAR:1,2013-12-01T12:42:00Z,28.1560,-82.7580,-0.257,1111122 
COMPS,ioos:station:USF.COMPS:TAR:1,2013-12-01T12:48:00Z,28.1560,-82.7580,-0.258,1111122 
COMPS,ioos:station:USF.COMPS:TAR:1,2013-12-01T12:54:00Z,28.1560,-82.7580,-0.258,1111122 
COMPS,ioos:station:USF.COMPS:TAR:1,2013-12-01T13:00:00Z,28.1560,-82.7580,-0.259,1111122 
COMPS,ioos:station:USF.COMPS:TAR:1,2013-12-01T13:06:00Z,28.1560,-82.7580,-0.26,1111122 
COMPS,ioos:station:USF.COMPS:TAR:1,2013-12-01T13:12:00Z,28.1560,-82.7580,-0.26,1111122 
COMPS,ioos:station:USF.COMPS:TAR:1,2013-12-01T13:18:00Z,28.1560,-82.7580,-0.26,1111122 
COMPS,ioos:station:USF.COMPS:TAR:1,2013-12-01T13:24:00Z,28.1560,-82.7580,-0.26,1111122 
COMPS,ioos:station:USF.COMPS:TAR:1,2013-12-01T13:30:00Z,28.1560,-82.7580,-0.26,1111122 
COMPS,ioos:station:USF.COMPS:TAR:1,2013-12-01T13:36:00Z,28.1560,-82.7580,-0.26,1111122 
COMPS,ioos:station:USF.COMPS:TAR:1,2013-12-01T13:42:00Z,28.1560,-82.7580,-0.26,1111122 
COMPS,ioos:station:USF.COMPS:TAR:1,2013-12-01T13:48:00Z,28.1560,-82.7580,-0.26,1111122 
COMPS,ioos:station:USF.COMPS:TAR:1,2013-12-01T13:54:00Z,28.1560,-82.7580,-0.26,1111122 
COMPS,ioos:station:USF.COMPS:TAR:1,2013-12-01T14:00:00Z,28.1560,-82.7580,-0.26,1111122 
COMPS,ioos:station:USF.COMPS:TAR:1,2013-12-01T14:06:00Z,28.1560,-82.7580,-0.26,1111122 
COMPS,ioos:station:USF.COMPS:TAR:1,2013-12-01T14:12:00Z,28.1560,-82.7580,-0.26,1111122 
COMPS,ioos:station:USF.COMPS:TAR:1,2013-12-01T14:18:00Z,28.1560,-82.7580,-0.259,1111122 
COMPS,ioos:station:USF.COMPS:TAR:1,2013-12-01T14:24:00Z,28.1560,-82.7580,-0.259,1111122 
COMPS,ioos:station:USF.COMPS:TAR:1,2013-12-01T14:30:00Z,28.1560,-82.7580,-0.259,1111122 
COMPS,ioos:station:USF.COMPS:TAR:1,2013-12-01T14:36:00Z,28.1560,-82.7580,-0.259,1111122 
COMPS,ioos:station:USF.COMPS:TAR:1,2013-12-01T14:42:00Z,28.1560,-82.7580,-0.259,1111122 
COMPS,ioos:station:USF.COMPS:TAR:1,2013-12-01T14:48:00Z,28.1560,-82.7580,-0.258,1111122 
COMPS,ioos:station:USF.COMPS:TAR:1,2013-12-01T14:54:00Z,28.1560,-82.7580,-0.258,1111122 
COMPS,ioos:station:USF.COMPS:TAR:1,2013-12-01T15:00:00Z,28.1560,-82.7580,-0.258,1111122 
COMPS,ioos:station:USF.COMPS:TAR:1,2013-12-01T15:06:00Z,28.1560,-82.7580,-0.258,1111122 
COMPS,ioos:station:USF.COMPS:TAR:1,2013-12-01T15:12:00Z,28.1560,-82.7580,-0.257,1111122 
COMPS,ioos:station:USF.COMPS:TAR:1,2013-12-01T15:18:00Z,28.1560,-82.7580,-0.257,1111122 
COMPS,ioos:station:USF.COMPS:TAR:1,2013-12-01T15:24:00Z,28.1560,-82.7580,-0.256,1111122 
COMPS,ioos:station:USF.COMPS:TAR:1,2013-12-01T15:30:00Z,28.1560,-82.7580,-0.256,1111122 
COMPS,ioos:station:USF.COMPS:TAR:1,2013-12-01T15:36:00Z,28.1560,-82.7580,-0.256,1111122 
COMPS,ioos:station:USF.COMPS:TAR:1,2013-12-01T15:42:00Z,28.1560,-82.7580,-0.255,1111122 
COMPS,ioos:station:USF.COMPS:TAR:1,2013-12-01T15:48:00Z,28.1560,-82.7580,-0.255,1111122 
COMPS,ioos:station:USF.COMPS:TAR:1,2013-12-01T15:54:00Z,28.1560,-82.7580,-0.255,1111122 
COMPS,ioos:station:USF.COMPS:TAR:1,2013-12-01T16:00:00Z,28.1560,-82.7580,-0.255,1111122 
COMPS,ioos:station:USF.COMPS:TAR:1,2013-12-01T16:06:00Z,28.1560,-82.7580,-0.254,1111122 
COMPS,ioos:station:USF.COMPS:TAR:1,2013-12-01T16:12:00Z,28.1560,-82.7580,-0.255,1111122 
COMPS,ioos:station:USF.COMPS:TAR:1,2013-12-01T16:18:00Z,28.1560,-82.7580,-0.255,1111122 
COMPS,ioos:station:USF.COMPS:TAR:1,2013-12-01T16:24:00Z,28.1560,-82.7580,-0.255,1111122 
COMPS,ioos:station:USF.COMPS:TAR:1,2013-12-01T16:30:00Z,28.1560,-82.7580,-0.256,1111122 
COMPS,ioos:station:USF.COMPS:TAR:1,2013-12-01T16:36:00Z,28.1560,-82.7580,-0.255,1111122 
COMPS,ioos:station:USF.COMPS:TAR:1,2013-12-01T16:42:00Z,28.1560,-82.7580,-0.255,1111122 
COMPS,ioos:station:USF.COMPS:TAR:1,2013-12-01T16:48:00Z,28.1560,-82.7580,-0.256,1111122 
COMPS,ioos:station:USF.COMPS:TAR:1,2013-12-01T16:54:00Z,28.1560,-82.7580,-0.255,1111122 
COMPS,ioos:station:USF.COMPS:TAR:1,2013-12-01T17:00:00Z,28.1560,-82.7580,-0.255,1111122 
COMPS,ioos:station:USF.COMPS:TAR:1,2013-12-01T17:06:00Z,28.1560,-82.7580,-0.254,1111122 
COMPS,ioos:station:USF.COMPS:TAR:1,2013-12-01T17:12:00Z,28.1560,-82.7580,-0.254,1111122 
COMPS,ioos:station:USF.COMPS:TAR:1,2013-12-01T17:18:00Z,28.1560,-82.7580,-0.254,1111122 
COMPS,ioos:station:USF.COMPS:TAR:1,2013-12-01T17:24:00Z,28.1560,-82.7580,-0.254,1111122 
COMPS,ioos:station:USF.COMPS:TAR:1,2013-12-01T17:30:00Z,28.1560,-82.7580,-0.253,1111122 
COMPS,ioos:station:USF.COMPS:TAR:1,2013-12-01T17:36:00Z,28.1560,-82.7580,-0.253,1111122 
COMPS,ioos:station:USF.COMPS:TAR:1,2013-12-01T17:42:00Z,28.1560,-82.7580,-0.251,1111122 
COMPS,ioos:station:USF.COMPS:TAR:1,2013-12-01T17:48:00Z,28.1560,-82.7580,-0.251,1111122 
COMPS,ioos:station:USF.COMPS:TAR:1,2013-12-01T17:54:00Z,28.1560,-82.7580,-0.252,1111122 
COMPS,ioos:station:USF.COMPS:TAR:1,2013-12-01T18:00:00Z,28.1560,-82.7580,-0.251,1111122 
COMPS,ioos:station:USF.COMPS:TAR:1,2013-12-01T18:06:00Z,28.1560,-82.7580,-0.251,1111122 
COMPS,ioos:station:USF.COMPS:TAR:1,2013-12-01T18:12:00Z,28.1560,-82.7580,-0.248,1111122 
COMPS,ioos:station:USF.COMPS:TAR:1,2013-12-01T18:18:00Z,28.1560,-82.7580,-0.247,1111122 
COMPS,ioos:station:USF.COMPS:TAR:1,2013-12-01T18:24:00Z,28.1560,-82.7580,-0.247,1111122 
COMPS,ioos:station:USF.COMPS:TAR:1,2013-12-01T18:30:00Z,28.1560,-82.7580,-0.245,1111122 
COMPS,ioos:station:USF.COMPS:TAR:1,2013-12-01T18:36:00Z,28.1560,-82.7580,-0.243,1111122 
COMPS,ioos:station:USF.COMPS:TAR:1,2013-12-01T18:42:00Z,28.1560,-82.7580,-0.242,1111122 
COMPS,ioos:station:USF.COMPS:TAR:1,2013-12-01T18:48:00Z,28.1560,-82.7580,-0.243,1111122 
COMPS,ioos:station:USF.COMPS:TAR:1,2013-12-01T18:54:00Z,28.1560,-82.7580,-0.244,1111122 
COMPS,ioos:station:USF.COMPS:TAR:1,2013-12-01T19:00:00Z,28.1560,-82.7580,-0.245,1111122 
COMPS,ioos:station:USF.COMPS:TAR:1,2013-12-01T19:06:00Z,28.1560,-82.7580,-0.246,1111122 
COMPS,ioos:station:USF.COMPS:TAR:1,2013-12-01T19:12:00Z,28.1560,-82.7580,-0.244,1111122 
COMPS,ioos:station:USF.COMPS:TAR:1,2013-12-01T19:18:00Z,28.1560,-82.7580,-0.243,1111122 
COMPS,ioos:station:USF.COMPS:TAR:1,2013-12-01T19:24:00Z,28.1560,-82.7580,-0.241,1111122 
COMPS,ioos:station:USF.COMPS:TAR:1,2013-12-01T19:30:00Z,28.1560,-82.7580,-0.24,1111122 
COMPS,ioos:station:USF.COMPS:TAR:1,2013-12-01T19:36:00Z,28.1560,-82.7580,-0.24,1111122 
COMPS,ioos:station:USF.COMPS:TAR:1,2013-12-01T19:42:00Z,28.1560,-82.7580,-0.24,1111122 
COMPS,ioos:station:USF.COMPS:TAR:1,2013-12-01T19:48:00Z,28.1560,-82.7580,-0.242,1111122 
COMPS,ioos:station:USF.COMPS:TAR:1,2013-12-01T19:54:00Z,28.1560,-82.7580,-0.243,1111122 
COMPS,ioos:station:USF.COMPS:TAR:1,2013-12-01T20:00:00Z,28.1560,-82.7580,-0.244,1111122 
COMPS,ioos:station:USF.COMPS:TAR:1,2013-12-01T20:06:00Z,28.1560,-82.7580,-0.244,1111122 
COMPS,ioos:station:USF.COMPS:TAR:1,2013-12-01T20:12:00Z,28.1560,-82.7580,-0.244,1111122 
COMPS,ioos:station:USF.COMPS:TAR:1,2013-12-01T20:18:00Z,28.1560,-82.7580,-0.244,1111122 
COMPS,ioos:station:USF.COMPS:TAR:1,2013-12-01T20:24:00Z,28.1560,-82.7580,-0.243,1111122 
COMPS,ioos:station:USF.COMPS:TAR:1,2013-12-01T20:30:00Z,28.1560,-82.7580,-0.241,1111122 
COMPS,ioos:station:USF.COMPS:TAR:1,2013-12-01T20:36:00Z,28.1560,-82.7580,-0.238,1111122 
COMPS,ioos:station:USF.COMPS:TAR:1,2013-12-01T20:42:00Z,28.1560,-82.7580,-0.236,1111122 
COMPS,ioos:station:USF.COMPS:TAR:1,2013-12-01T20:48:00Z,28.1560,-82.7580,-0.233,1111122 
COMPS,ioos:station:USF.COMPS:TAR:1,2013-12-01T20:54:00Z,28.1560,-82.7580,-0.231,1111122 
COMPS,ioos:station:USF.COMPS:TAR:1,2013-12-01T21:00:00Z,28.1560,-82.7580,-0.231,1111122 
COMPS,ioos:station:USF.COMPS:TAR:1,2013-12-01T21:06:00Z,28.1560,-82.7580,-0.231,1111122 
COMPS,ioos:station:USF.COMPS:TAR:1,2013-12-01T21:12:00Z,28.1560,-82.7580,-0.23,1111122 
COMPS,ioos:station:USF.COMPS:TAR:1,2013-12-01T21:18:00Z,28.1560,-82.7580,-0.229,1111122 
COMPS,ioos:station:USF.COMPS:TAR:1,2013-12-01T21:24:00Z,28.1560,-82.7580,-0.229,1111122 
COMPS,ioos:station:USF.COMPS:TAR:1,2013-12-01T21:30:00Z,28.1560,-82.7580,-0.229,1111122 
COMPS,ioos:station:USF.COMPS:TAR:1,2013-12-01T21:36:00Z,28.1560,-82.7580,-0.229,1111122 
COMPS,ioos:station:USF.COMPS:TAR:1,2013-12-01T21:42:00Z,28.1560,-82.7580,-0.229,1111122 
COMPS,ioos:station:USF.COMPS:TAR:1,2013-12-01T21:48:00Z,28.1560,-82.7580,-0.229,1111122 
COMPS,ioos:station:USF.COMPS:TAR:1,2013-12-01T21:54:00Z,28.1560,-82.7580,-0.229,1111122 
COMPS,ioos:station:USF.COMPS:TAR:1,2013-12-01T22:00:00Z,28.1560,-82.7580,-0.228,1111122 
COMPS,ioos:station:USF.COMPS:TAR:1,2013-12-01T22:06:00Z,28.1560,-82.7580,-0.228,1111122 
COMPS,ioos:station:USF.COMPS:TAR:1,2013-12-01T22:12:00Z,28.1560,-82.7580,-0.228,1111122 
COMPS,ioos:station:USF.COMPS:TAR:1,2013-12-01T22:18:00Z,28.1560,-82.7580,-0.228,1111122 
COMPS,ioos:station:USF.COMPS:TAR:1,2013-12-01T22:24:00Z,28.1560,-82.7580,-0.228,1111122 
COMPS,ioos:station:USF.COMPS:TAR:1,2013-12-01T22:30:00Z,28.1560,-82.7580,-0.227,1111122 
COMPS,ioos:station:USF.COMPS:TAR:1,2013-12-01T22:36:00Z,28.1560,-82.7580,-0.228,1111122 
COMPS,ioos:station:USF.COMPS:TAR:1,2013-12-01T22:42:00Z,28.1560,-82.7580,-0.227,1111122 
COMPS,ioos:station:USF.COMPS:TAR:1,2013-12-01T22:48:00Z,28.1560,-82.7580,-0.227,1111122 
COMPS,ioos:station:USF.COMPS:TAR:1,2013-12-01T22:54:00Z,28.1560,-82.7580,-0.227,1111122 
COMPS,ioos:station:USF.COMPS:TAR:1,2013-12-01T23:00:00Z,28.1560,-82.7580,-0.227,1111122 
COMPS,ioos:station:USF.COMPS:TAR:1,2013-12-01T23:06:00Z,28.1560,-82.7580,-0.226,1111122 
COMPS,ioos:station:USF.COMPS:TAR:1,2013-12-01T23:12:00Z,28.1560,-82.7580,-0.226,1111122 
COMPS,ioos:station:USF.COMPS:TAR:1,2013-12-01T23:18:00Z,28.1560,-82.7580,-0.225,1111122 
COMPS,ioos:station:USF.COMPS:TAR:1,2013-12-01T23:24:00Z,28.1560,-82.7580,-0.225,1111122 
COMPS,ioos:station:USF.COMPS:TAR:1,2013-12-01T23:30:00Z,28.1560,-82.7580,-0.225,1111122 
COMPS,ioos:station:USF.COMPS:TAR:1,2013-12-01T23:36:00Z,28.1560,-82.7580,-0.225,1111122 
COMPS,ioos:station:USF.COMPS:TAR:1,2013-12-01T23:42:00Z,28.1560,-82.7580,-0.224,1111122 
COMPS,ioos:station:USF.COMPS:TAR:1,2013-12-01T23:48:00Z,28.1560,-82.7580,-0.224,1111122 
COMPS,ioos:station:USF.COMPS:TAR:1,2013-12-01T23:54:00Z,28.1560,-82.7580,-0.223,1111122 
COMPS,ioos:station:USF.COMPS:TAR:1,2013-12-02T00:00:00Z,28.1560,-82.7580,-0.223,1111122 
COMPS,ioos:station:USF.COMPS:TAR:1,2013-12-02T00:06:00Z,28.1560,-82.7580,-0.222,1111122 
COMPS,ioos:station:USF.COMPS:TAR:1,2013-12-02T00:12:00Z,28.1560,-82.7580,-0.222,1111122 
COMPS,ioos:station:USF.COMPS:TAR:1,2013-12-02T00:18:00Z,28.1560,-82.7580,-0.222,1111122 
COMPS,ioos:station:USF.COMPS:TAR:1,2013-12-02T00:24:00Z,28.1560,-82.7580,-0.221,1111122 
COMPS,ioos:station:USF.COMPS:TAR:1,2013-12-02T00:30:00Z,28.1560,-82.7580,-0.22,1111122 
COMPS,ioos:station:USF.COMPS:TAR:1,2013-12-02T00:36:00Z,28.1560,-82.7580,-0.22,1111122 
COMPS,ioos:station:USF.COMPS:TAR:1,2013-12-02T00:42:00Z,28.1560,-82.7580,-0.219,1111122 
COMPS,ioos:station:USF.COMPS:TAR:1,2013-12-02T00:48:00Z,28.1560,-82.7580,-0.218,1111122 
COMPS,ioos:station:USF.COMPS:TAR:1,2013-12-02T00:54:00Z,28.1560,-82.7580,-0.218,1111122 
COMPS,ioos:station:USF.COMPS:TAR:1,2013-12-02T01:00:00Z,28.1560,-82.7580,-0.217,1111122 
COMPS,ioos:station:USF.COMPS:TAR:1,2013-12-02T01:06:00Z,28.1560,-82.7580,-0.216,1111122 
COMPS,ioos:station:USF.COMPS:TAR:1,2013-12-02T01:12:00Z,28.1560,-82.7580,-0.216,1111122 
COMPS,ioos:station:USF.COMPS:TAR:1,2013-12-02T01:18:00Z,28.1560,-82.7580,-0.215,1111122 
COMPS,ioos:station:USF.COMPS:TAR:1,2013-12-02T01:24:00Z,28.1560,-82.7580,-0.214,1111122 
COMPS,ioos:station:USF.COMPS:TAR:1,2013-12-02T01:30:00Z,28.1560,-82.7580,-0.213,1111122 
COMPS,ioos:station:USF.COMPS:TAR:1,2013-12-02T01:36:00Z,28.1560,-82.7580,-0.213,1111122 
COMPS,ioos:station:USF.COMPS:TAR:1,2013-12-02T01:42:00Z,28.1560,-82.7580,-0.212,1111122 
COMPS,ioos:station:USF.COMPS:TAR:1,2013-12-02T01:48:00Z,28.1560,-82.7580,-0.211,1111122 
COMPS,ioos:station:USF.COMPS:TAR:1,2013-12-02T01:54:00Z,28.1560,-82.7580,-0.211,1111122 
COMPS,ioos:station:USF.COMPS:TAR:1,2013-12-02T02:00:00Z,28.1560,-82.7580,-0.21,1111122 
COMPS,ioos:station:USF.COMPS:TAR:1,2013-12-02T02:06:00Z,28.1560,-82.7580,-0.209,1111122 
COMPS,ioos:station:USF.COMPS:TAR:1,2013-12-02T02:12:00Z,28.1560,-82.7580,-0.208,1111122 
COMPS,ioos:station:USF.COMPS:TAR:1,2013-12-02T02:18:00Z,28.1560,-82.7580,-0.206,1111122 
COMPS,ioos:station:USF.COMPS:TAR:1,2013-12-02T02:24:00Z,28.1560,-82.7580,-0.205,1111122 
COMPS,ioos:station:USF.COMPS:TAR:1,2013-12-02T02:30:00Z,28.1560,-82.7580,-0.205,1111122 
COMPS,ioos:station:USF.COMPS:TAR:1,2013-12-02T02:36:00Z,28.1560,-82.7580,-0.204,1111122 
COMPS,ioos:station:USF.COMPS:TAR:1,2013-12-02T02:42:00Z,28.1560,-82.7580,-0.203,1111122 
COMPS,ioos:station:USF.COMPS:TAR:1,2013-12-02T02:48:00Z,28.1560,-82.7580,-0.202,1111122 